User: anonymous   Login
Location: Newark
(50.0306°N, 2.3272°E)
Time: 14:18:45
(UTC+00:00)
Language:

AO-7 - Orbit

View from above orbital plane
View from above orbital plane
View from above satellite
View from above satellite

Ground track
Ground track

The orbit data is extracted from the following two-line orbital elements,

1  7530U 74089B   20022.16691272 -.00000043  00000-0  14906-4 0  9995
2  7530 101.7790 352.8571 0011984 288.7267 139.4382 12.53641767 67775
Epoch (UTC): 22 January 2020 04:00:21
Eccentricity: 0.0011984
inclination: 101.7790°
perigee height: 1440 km
apogee height: 1458 km
right ascension of ascending node: 352.8571°
argument of perigee: 288.7267°
revolutions per day: 12.53641767
mean anomaly at epoch: 139.4382°
orbit number at epoch: 6777

The dashed part of the orbit path shows where the satellite is in the earth's shadow,  

DLR